Flag for India Weather past 2 weeks in Kapurthala, Punjab, India

Now
88 °F

Scattered clouds.


Feels Like: 102 °F
Forecast: 84 / 101 °F
Wind: 7 mph from East

Location: Amritsar Airport

Current Time: Jul 25, 2014 at 7:32:29 PM

Latest Report: Jul 25, 2014 at 6:30 PM


Visibility: 3 mi

Pressure: 29.56 "Hg

Humidity: 75%

Dew point: 79 °F

Location of KapurthalaLocation

Historic Weather in Kapurthala — Graph

°F

Kapurthala temperature yesterday

Maximum temperature yesterday: 88 °F (at 2:00 PM)
Minimum temperature yesterday: 81 °F (at 6:00 AM)
Average temperature yesterday: 83 °F

Past Weeks' High & Low Weather Summary

 TemperatureHumidityPressure
High104 °F (Jul 11, 2:00 PM)100% (Jul 17, 10:30 PM)29.65 "Hg (Jul 17, 10:30 PM)
Low79 °F (Jul 17, 3:00 PM)31% (Jul 11, 4:00 PM)29.36 "Hg (Jul 15, 5:00 PM)
Average89 °F74%29.48 "Hg
* Reported Jul 11 11:30 AM — Jul 25 6:00 PM, Kapurthala, Weather by CustomWeather, © 2014

Note: Actual official high and low records may vary slightly from our data, if they occured in-between our weather recording intervals... More about our weather records

Advertising

Kapurthala weather history for previous 24 hours

 ConditionsComfort  
Time TempWeatherWind HumidityBarometerVisibility
6:00 PM
Jul 25
90 °FScattered clouds.8 mph67%29.56 "Hg3 mi
5:30 PM90 °FScattered clouds.7 mph67%29.56 "Hg3 mi
5:00 PM90 °FScattered clouds.6 mph67%29.56 "Hg3 mi
4:00 PM90 °FScattered clouds.7 mph71%29.59 "Hg3 mi
3:30 PM90 °FScattered clouds.7 mph63%29.59 "Hg3 mi
3:00 PM90 °FBroken clouds.8 mph67%29.59 "Hg2 mi
2:30 PM90 °FMostly cloudy.7 mph71%29.62 "Hg2 mi
2:00 PM90 °FMostly cloudy.8 mph63%29.62 "Hg2 mi
1:30 PM88 °FMostly cloudy.9 mph70%29.62 "Hg2 mi
1:00 PM88 °FMostly cloudy.9 mph75%29.62 "Hg2 mi
12:30 PM88 °FMostly cloudy.10 mph75%29.65 "Hg2 mi
12:00 PM90 °FMostly cloudy.6 mph71%29.65 "Hg2 mi
11:30 AM90 °FFog.7 mph71%29.65 "Hg2 mi
11:00 AM88 °FFog.8 mph75%29.65 "Hg2 mi
10:30 AM86 °FFog.8 mph79%29.65 "Hg2 mi
10:00 AM86 °FFog.8 mph79%29.65 "Hg2 mi
9:30 AM84 °FFog.7 mph84%29.65 "Hg2 mi
9:00 AM84 °FFog.6 mph89%29.65 "Hg2 mi
8:30 AM84 °FFog.6 mph84%29.62 "Hg2 mi
8:00 AM84 °FFog.7 mph89%29.62 "Hg2 mi
7:30 AM82 °FFog.2 mph89%29.59 "Hg2 mi
7:00 AM82 °FFog.No wind94%29.59 "Hg2 mi
6:30 AM82 °FFog.No wind94%29.59 "Hg2 mi
6:00 AM81 °FFog.No wind100%29.59 "Hg2 mi
5:30 AM81 °FFog.No wind100%29.59 "Hg2 mi
5:00 AM81 °FFog.No wind100%29.56 "Hg2 mi
4:30 AM82 °FFog.No wind94%29.56 "Hg2 mi
4:00 AM82 °FFog.No wind94%29.56 "Hg2 mi
3:30 AM82 °FFog.No wind94%29.56 "Hg2 mi
2:30 AM82 °FFog.No wind94%29.56 "Hg2 mi
1:30 AM82 °FFog.1 mph89%29.56 "Hg2 mi
1:00 AM82 °FFog.5 mph94%29.56 "Hg2 mi
12:30 AM82 °FFog.No wind94%29.56 "Hg2 mi
12:00 AM82 °FFog.5 mph94%29.56 "Hg2 mi
11:30 PM
Jul 24
81 °FFog.2 mph100%29.59 "Hg2 mi
11:00 PM81 °FFog.No wind100%29.56 "Hg2 mi
10:30 PM82 °FFog.1 mph94%29.56 "Hg2 mi
10:00 PM82 °FFog.2 mph94%29.56 "Hg2 mi
9:30 PM82 °FFog.3 mph94%29.56 "Hg2 mi
9:00 PM82 °FFog.2 mph94%29.56 "Hg3 mi
8:30 PM82 °FFog.2 mph89%29.53 "Hg3 mi
8:00 PM84 °FFog.5 mph84%29.53 "Hg3 mi
7:30 PM84 °FMore clouds than sun.3 mph84%29.53 "Hg4 mi
7:00 PM84 °FBroken clouds.6 mph79%29.53 "Hg4 mi
Weather by CustomWeather, © 2014

See weather overviewHow to use our weather pages